Florence, SC

12:34 AM EDT on August 22, 2017 (GMT -0400)
Florence Regional

Weather History for KFLO - January, 2014

Change the Weather History Date:

Saturday, January 25, 2014

  Actual Average Record
Temperature  
Mean Temperature 32 °F 45 °F  
Max Temperature 51 °F 56 °F 81 °F (1990)
Min Temperature 12 °F 35 °F 12 °F (2014)
Degree Days  
Heating Degree Days 33 20  
Month to date heating degree days 575 507  
Since 1 July heating degree days 1487 1486  
Cooling Degree Days 0 0  
Month to date cooling degree days 0 0  
Year to date cooling degree days 0 0  
Moisture  
Dew Point 11 °F    
Average Humidity 44    
Maximum Humidity 67    
Minimum Humidity 20    
Precipitation  
Precipitation 0.00 in 0.11 in 1.72 in (1978)
Month to date precipitation 2.01 2.62  
Year to date precipitation 2.01 2.62  
Sea Level Pressure  
Sea Level Pressure 29.97 in    
Wind  
Wind Speed 12 mph (SW)    
Max Wind Speed 26 mph    
Max Gust Speed 36 mph    
Visibility 10 miles    
Events      
T = Trace of Precipitation, MM = Missing Value Source: NWS Daily Summary

Daily Weather History Graph

Daily Weather History Graph

Search for Another Location

Airport or City:

Trip Planner

Search our weather history database for the weather conditions in past years. The results will help you decide how hot, cold, wet, or windy it might be!

Date:

Astronomy

Jan. 25, 2014 Rise Set
Actual Time 7:20 AM EST 5:42 PM EST
Civil Twilight 6:53 AM EST 6:08 PM EST
Nautical Twilight 6:23 AM EST 6:39 PM EST
Astronomical Twilight 5:53 AM EST 7:08 PM EST
Moon 1:52 AM EST (1/25) 12:41 PM EST (1/25)
Length of Visible Light 11h 14m
Length of Day
10h 21m
Waning Crescent, 34% of the Moon is Illuminated
Jan 25
Waning Crescent
Jan 30
New
Feb 6
First Quarter
Feb 14
Full
Feb 22
Last Quarter

Hourly Weather History & Observations

Time (EST) Temp. Windchill Dew Point Humidity Pressure Visibility Wind Dir Wind Speed Gust Speed Precip Events Conditions
12:53 AM 17.1 °F 11.7 °F 1.9 °F 52% 30.30 in 10.0 mi SSW 3.5 mph - N/A   Clear
1:53 AM 12.9 °F 6.9 °F 3.9 °F 67% 30.28 in 10.0 mi South 3.5 mph - N/A   Clear
2:53 AM 12.0 °F 5.9 °F 3.0 °F 67% 30.23 in 10.0 mi South 3.5 mph - N/A   Clear
3:53 AM 16.0 °F 7.4 °F 3.0 °F 57% 30.20 in 10.0 mi SSW 5.8 mph - N/A   Clear
4:53 AM 17.1 °F 7.6 °F 1.9 °F 52% 30.17 in 10.0 mi SSW 6.9 mph - N/A   Clear
5:53 AM 17.1 °F 8.7 °F 3.0 °F 54% 30.15 in 10.0 mi SSW 5.8 mph - N/A   Clear
6:53 AM 17.1 °F 7.6 °F 6.1 °F 62% 30.12 in 10.0 mi SSW 6.9 mph - N/A   Clear
7:53 AM 23.0 °F 13.9 °F 10.0 °F 58% 30.10 in 10.0 mi SW 8.1 mph - N/A   Clear
8:53 AM 27.0 °F 18.0 °F 12.0 °F 53% 30.07 in 10.0 mi SSW 9.2 mph - N/A   Clear
9:53 AM 34.0 °F 25.0 °F 16.0 °F 48% 30.04 in 10.0 mi SW 12.7 mph 20.7 mph N/A   Clear
10:53 AM 36.0 °F 28.0 °F 15.1 °F 43% 29.99 in 10.0 mi SW 11.5 mph - N/A   Mostly Cloudy
11:53 AM 39.9 °F 30.8 °F 12.9 °F 33% 29.91 in 10.0 mi SW 18.4 mph 26.5 mph N/A   Scattered Clouds
12:53 PM 44.1 °F 35.9 °F 12.0 °F 27% 29.85 in 10.0 mi WSW 19.6 mph 26.5 mph N/A   Scattered Clouds
1:53 PM 48.9 °F - 12.0 °F 23% 29.78 in 10.0 mi SW 16.1 mph 25.3 mph N/A   Partly Cloudy
2:53 PM 50.0 °F - 10.9 °F 21% 29.73 in 10.0 mi SW 24.2 mph 32.2 mph N/A   Partly Cloudy
3:53 PM 51.1 °F - 12.0 °F 21% 29.73 in 10.0 mi SW 19.6 mph 28.8 mph N/A   Overcast
4:53 PM 51.1 °F - 14.0 °F 23% 29.75 in 10.0 mi WSW 18.4 mph 31.1 mph N/A   Overcast
5:53 PM 50.0 °F - 15.1 °F 25% 29.77 in 10.0 mi WSW 11.5 mph 21.9 mph N/A   Overcast
6:53 PM 48.9 °F - 16.0 °F 27% 29.80 in 10.0 mi WSW 15.0 mph 21.9 mph N/A   Overcast
7:53 PM 48.0 °F - 16.0 °F 28% 29.81 in 10.0 mi West 12.7 mph 18.4 mph N/A   Mostly Cloudy
8:53 PM 46.9 °F - 16.0 °F 29% 29.84 in 10.0 mi WNW 8.1 mph - N/A   Clear
9:53 PM 43.0 °F 38.2 °F 16.0 °F 34% 29.87 in 10.0 mi WNW 8.1 mph - N/A   Clear
10:53 PM 44.1 °F 35.9 °F 16.0 °F 32% 29.89 in 10.0 mi West 19.6 mph 26.5 mph N/A   Clear
11:53 PM 42.1 °F 35.2 °F 17.1 °F 37% 29.90 in 10.0 mi West 12.7 mph - N/A   Clear